Tracking 28895 objects as of 29-May-2024
HD Live streaming from Space Station
objects crossing your sky now

SL-16 DEB

Track SL-16 DEB now!
10-day predictions


NORAD ID: 43353
Int'l Code: 1995-058N
Perigee: 754.4 km
Apogee: 779.5 km
Inclination: 71.0 °
Period: 100.0 minutes
Semi major axis: 7137 km
RCS: Unknown
Launch date: October 31, 1995
Source: Commonwealth of Independent States (former USSR) (CIS)
Launch site: TYURATAM MISSILE AND SPACE COMPLEX (TTMTR)

Note: This is SATELLITE DEBRIS
Your satellite tracking list
Your tracking list is empty




NASA's NSSDC Master Catalog

Two Line Element Set (TLE):
1 43353U 95058N   24149.82949805  .00005843  00000-0  18802-2 0  9991
2 43353  71.0004 337.2555 0017606 295.2088  64.7221 14.39601551546794
Source of the keplerian elements: AFSPC